Regional Weather Roundup
Issued by NWS Green Bay, WI

Home | Current Version | Previous Version | Graphics & Text | Print | Product List | Glossary Off
Versions: 1 2 3 4 5 6 7 8 9 10 11 12 13 14 15 16 17 18 19 20 21 22 23 24 25 26 27 28 29 30 31 32 33 34 35 36 37 38 39 40 41 42 43 44 45 46 47 48 49 50

000
ASUS43 KGRB 250811
RWRGRB

NORTH-CENTRAL AND NORTHEAST WISCONSIN REGIONAL WEATHER ROUNDUP
NATIONAL WEATHER SERVICE GREEN BAY WI
300 AM CDT TUE APR 25 2017

WIZ005-009-010>012-018-019-250900-
NORTH CENTRAL WISCONSIN

CITY           SKY/WX    TMP DP  RH WIND       PRES   REMARKS
IRONWOOD       CLOUDY    56  32  40 SE16G24   29.62F
MANITOWISH WTR CLOUDY    51  32  48 SE3       29.67F
ARBOR VITAE    CLOUDY    52  35  52 SE8       29.66F
EAGLE RIVER    CLOUDY    46  32  57 SE7       29.69F
LAND O LAKES   CLOUDY    46  33  59 SE9       29.71F
RHINELANDER    CLOUDY    51  35  54 E9        29.69F
PHILLIPS       CLOUDY    52  35  52 E3        29.63F
ANTIGO         CLOUDY    46  35  63 SE12      29.71S
TOMAHAWK       PTCLDY    51  31  46 CALM      29.67F
MERRILL        CLOUDY    54  33  45 SE8       29.68S
$$

WIZ013-073-250900-
NORTHEAST WISCONSIN

CITY           SKY/WX    TMP DP  RH WIND       PRES   REMARKS
IRON MOUNTAIN  CLOUDY    43  34  70 SE3       29.74F
MARINETTE      CLOUDY    55  35  47 S12       29.73F
OCONTO         CLOUDY    49  35  58 SE8       29.74R
$$

WIZ017-030-035>037-045-250900-
CENTRAL WISCONSIN

CITY           SKY/WX    TMP DP  RH WIND       PRES   REMARKS
MEDFORD        CLOUDY    55  34  45 SE9       29.64F
WAUSAU         CLOUDY    58  32  37 SE8       29.66F
MOSINEE        CLOUDY    59  30  33 SE14      29.68F
MARSHFIELD     CLOUDY    58  31  35 SE12      29.64F
WISC RAPIDS    CLOUDY    60  32  34 SE8       29.67
STEVENS POINT  CLOUDY    58  30  34 SE8G16    29.68F
WAUPACA        CLOUDY    57  33  41 E7        29.71F
SHAWANO        CLOUDY    48  38  68 CALM      29.73F
CLINTONVILLE   CLOUDY    55  32  41 SE10      29.71F
WAUTOMA        CLOUDY    59  34  39 E6        29.69F
$$

WIZ038-039-048-051-250900-
FOX VALLEY

CITY           SKY/WX    TMP DP  RH WIND       PRES   REMARKS
NWS GREEN BAY  CLOUDY    47  38  71 E6        29.75S
APPLETON       CLEAR     52  30  43 E5        29.71F
OSHKOSH        CLOUDY    54  34  46 SE3       29.72S
FOND DU LAC    CLOUDY    56  33  42 SE14      29.72F
$$

WIZ022-050-052-250900-
EAST CENTRAL WISCONSIN

CITY           SKY/WX    TMP DP  RH WIND       PRES   REMARKS
EPHRAIM        PTSUNNY   50  40  67 SE3       29.79F
WASHINGTON ISL CLOUDY    49  39  68 S6        29.80R
STURGEON BAY   CLOUDY    51  39  63 SE9       29.76F
MANITOWOC      CLOUDY    52  35  52 S7        29.76F
SHEBOYGAN      CLOUDY    50  37  61 S6        29.75F
$$

LMZ563-521-522-541>543-250900-
LAKESHORE

STATION/POSITION TIME  TEMP    WIND        PRES    VSBY  WAVE
                       AIR SEA DIR/SP/G                  HT/PER
                 (UTC) (F)     (DEG/KT/KT) (MB)    (MI)  (FT/S)
SHEBOYGAN LKSHOR 0800   49     170/ 14/ 15 1007.2F
KEWAUNEE LKSHORE 0748   50      CALM  /  2 1007.7F
NORTHPORT PIER   0740   50     150/  6/  8 1009.5S
N MID LAKE BUOY  0750   42 37  110/  8/  8 1010.0S         2/ 4
CHAMBERS ISLAND  0740   50     130/  8/ 15 1008.1F
MENOMINEE LKSHOR 0748   51     120/ 23/ 28 1004.9F
$$




USA.gov is the U.S. government's official web portal to all federal, state and local government web resources and services.